This demonstration page uses our WeatherBlox Daily Observations layout. Learn more.

Left ArrowRight Arrow

Hourly Observations for May 23, 2017

Temp ( °F °C ) Dew Point ( °F °C ) Humidity (%) Winds ( mph kmh ) Pressure ( in mb ) Visibility ( mi km ) Precip ( " mm )
12:53 am 00:53 Clear 59 15 55 12.8 87 87 SE 3 6 29.85 1011 10 16 0.00 0.00
1:53 am 01:53 Clear 56 13.3 55 12.8 97 97 NE 5 7 29.85 1011 10 16 0.00 0.00
2:09 am 02:09 Mostly Cloudy 57 13.9 56 13.3 96 96 N 7 11 29.88 1012 10 16 0.00 0.00
2:53 am 02:53 Partly Cloudy 58 14.4 56 13.3 93 93 NE 8 13 29.83 1010 10 16 0.00 0.00
3:25 am 03:25 Mostly Cloudy 59 15 56 13.3 90 90 NNE 8 13 29.88 1012 10 16 0.00 0.00
3:53 am 03:53 Cloudy 59 15 57 13.9 93 93 N 7 11 29.83 1010 10 16 0.00 0.00
4:53 am 04:53 Cloudy 61 16.1 58 14.4 90 90 NNE 8 13 29.83 1010 10 16 0.00 0.00
5:26 am 05:26 Cloudy 61 16.1 58 14.4 90 90 NNE 12 19 29.88 1012 10 16 0.00 0.00
5:53 am 05:53 Cloudy 62 16.7 59 15 90 90 NNE 12 19 29.86 1011 10 16 0.00 0.00
6:18 am 06:18 Cloudy 63 17.2 59 15 87 87 NNE 12 19 29.88 1012 10 16 0.00 0.00
6:53 am 06:53 Cloudy 63 17.2 58 14.4 84 84 NE 10 17 29.87 1011 10 16 0.00 0.00
7:35 am 07:35 Mostly Cloudy 63 17.2 58 14.4 84 84 NE 15 24 29.91 1013 10 16 0.00 0.00
7:53 am 07:53 Mostly Cloudy 64 17.8 59 15 84 84 NE 12 19 29.89 1012 10 16 0.00 0.00
8:53 am 08:53 Cloudy 66 18.9 52 11.1 61 61 NE 22 35 29.95 1014 10 16 0.00 0.00
9:53 am 09:53 Cloudy 65 18.3 50 10 59 59 N 23 37 29.99 1016 10 16 0.00 0.00
10:53 am 10:53 Mostly Cloudy 66 18.9 48 8.9 52 52 NNE 20 31 30.00 1016 10 16 0.00 0.00
11:53 am 11:53 Cloudy 66 18.9 47 8.3 50 50 NNE 16 26 30.03 1017 10 16 0.00 0.00
12:53 pm 12:53 Cloudy 66 18.9 45 7.2 47 47 NNE 18 30 30.04 1017 10 16 0.00 0.00
1:53 pm 13:53 Mostly Cloudy 69 20.6 44 6.7 41 41 N 17 28 30.03 1017 10 16 0.00 0.00
2:53 pm 14:53 Mostly Cloudy 72 22.2 43 6.1 35 35 N 16 26 30.01 1016 10 16 0.00 0.00
3:53 pm 15:53 Mostly Cloudy 72 22.2 40 4.4 31 31 ENE 13 20 29.99 1016 10 16 0.00 0.00
4:53 pm 16:53 Partly Cloudy 74 23.3 40 4.4 29 29 NNE 16 26 29.97 1015 10 16 0.00 0.00
5:53 pm 17:53 Sunny 72 22.2 39 3.9 30 30 NNW 12 19 29.96 1014 10 16 0.00 0.00
6:53 pm 18:53 Mostly Sunny 72 22.2 39 3.9 30 30 N 8 13 29.93 1014 10 16 0.00 0.00
7:53 pm 19:53 Sunny 71 21.7 40 4.4 32 32 ENE 7 11 29.91 1013 10 16 0.00 0.00
8:53 pm 20:53 Clear 67 19.4 36 2.2 32 32 ENE 13 20 29.92 1013 10 16 0.00 0.00
9:53 pm 21:53 Clear 63 17.2 35 1.7 35 35 E 6 9 29.93 1014 10 16 0.00 0.00
10:53 pm 22:53 Clear 60 15.6 37 2.8 42 42 E 5 7 29.94 1014 10 16 0.00 0.00
11:53 pm 23:53 Clear 57 13.9 38 3.3 49 49 S 6 9 29.96 1015 10 16 0.00 0.00

Powered by AerisWeather